Location: Ajisawe
(8.4333°N, 4.3833°E)
Time: 00:15:06
(UTC+00:00)

S-56A Canister/Altair - Pass Details

Date: 25 April 2021
Orbit: 631 x 2501 km, 38.9° (Epoch: 15 May)

Event Time Altitude Azimuth Distance (km) Brightness Sun altitude
Rises 20:32:52 0° 264° (W) 5,921 12.7 -38.6°
Reaches altitude 10° 20:38:16 10° 277° (W) 4,663 12.1 -39.8°
Maximum altitude 20:47:16 23° 323° (NW) 3,167 11.0 -41.8°
Drops below altitude 10° 20:54:17 10° 12° (NNE) 3,517 11.0 -43.3°
Enters shadow 20:56:16 - 22° (NNE) 3,883 11.2 -43.8°
